Humidity-temperature Sensor

Selected Measurement Type: Air Temperature

 
Air Temperature [°C]     6 entries per hour
Showing data from 4/12/2016 (00:00:00 Z) to 4/9/2016 (00:01:00 Z)
Previous Next [ Day | 3-Days | 7-Days ]
First Last
Prev [ Day | 3-Days | 7-Days ] Next
First Last

Start Time:     :
End Time:     :     
Time (in GMT) :00 :50 :40 :30 :20 :10
Previous Next [ Day | 3-Days | 7-Days ]
First Last
Prev [ Day | 3-Days | 7-Days ] Next
First Last


123 => good data
MM => data is determined as missing
-- => data not received/configured
Back to Top Back to Top
4/12/2016 00:00 to 23:10 28.77 28.58 28.60 28.57 28.66 28.55
4/11/2016 23:00 to 22:10 28.50 28.55 28.57 28.42 28.37 28.43
4/11/2016 22:00 to 21:10 28.56 28.45 28.38 28.49 28.39 28.23
4/11/2016 21:00 to 20:10 28.25 28.44 28.34 28.32 28.42 28.37
4/11/2016 20:00 to 19:10 28.29 28.33 28.19 28.25 28.19 28.30
4/11/2016 19:00 to 18:10 28.27 28.28 28.19 28.14 28.18 28.08
4/11/2016 18:00 to 17:10 27.88 27.89 28.16 28.28 28.22 28.22
4/11/2016 17:00 to 16:10 28.25 28.30 28.33 28.31 28.13 28.21
4/11/2016 16:00 to 15:10 28.13 28.12 28.24 28.34 27.95 28.16
4/11/2016 15:00 to 14:10 28.38 28.51 28.30 28.21 28.20 28.14
4/11/2016 14:00 to 13:10 27.90 27.88 27.87 27.82 27.81 27.75
4/11/2016 13:00 to 12:10 27.76 27.71 27.73 27.78 27.78 27.77
4/11/2016 12:00 to 11:10 27.76 27.91 27.89 27.76 27.82 27.94
4/11/2016 11:00 to 10:10 27.82 27.88 27.82 27.90 27.84 27.82
4/11/2016 10:00 to 9:10 27.88 27.80 27.90 27.96 28.03 28.37
4/11/2016 09:00 to 8:10 28.14 28.15 28.04 28.19 28.10 28.11
4/11/2016 08:00 to 7:10 28.15 28.14 28.12 28.02 28.03 28.10
4/11/2016 07:00 to 6:10 28.17 28.20 28.23 28.29 28.14 28.30
4/11/2016 06:00 to 5:10 28.32 28.27 28.34 28.44 28.31 28.45
4/11/2016 05:00 to 4:10 28.57 28.54 28.48 28.58 28.50 28.51
4/11/2016 04:00 to 3:10 28.48 28.53 28.43 28.52 28.48 28.46
4/11/2016 03:00 to 2:10 28.54 28.48 28.41 28.41 28.46 28.50
4/11/2016 02:00 to 1:10 28.43 28.48 28.35 28.41 28.40 28.35
4/11/2016 01:00 to 0:10 28.38 28.63 28.50 28.47 28.57 28.66
4/11/2016 00:00 to 23:10 28.67 28.68 28.64 28.44 28.45 28.65
4/10/2016 23:00 to 22:10 28.59 28.68 28.65 28.75 28.92 28.76
4/10/2016 22:00 to 21:10 28.78 28.52 28.60 28.46 28.52 28.61
4/10/2016 21:00 to 20:10 28.59 28.45 28.35 28.37 28.35 28.22
4/10/2016 20:00 to 19:10 27.92 28.05 27.97 27.93 28.00 27.91
4/10/2016 19:00 to 18:10 27.90 28.05 27.95 27.89 27.86 27.88
4/10/2016 18:00 to 17:10 27.98 27.85 27.84 27.99 27.88 27.83
4/10/2016 17:00 to 16:10 27.89 27.99 28.02 28.08 28.08 28.14
4/10/2016 16:00 to 15:10 28.06 28.06 27.94 28.06 27.98 28.08
4/10/2016 15:00 to 14:10 28.04 27.87 28.05 27.96 27.93 27.65
4/10/2016 14:00 to 13:10 27.69 27.66 27.40 27.37 27.32 27.40
4/10/2016 13:00 to 12:10 27.35 27.41 27.32 27.33 27.34 27.41
4/10/2016 12:00 to 11:10 27.42 27.30 27.32 27.51 27.48 27.33
4/10/2016 11:00 to 10:10 27.19 27.23 27.11 27.35 27.39 27.52
4/10/2016 10:00 to 9:10 27.40 -- 27.52 27.65 27.60 27.50
4/10/2016 09:00 to 8:10 27.57 27.59 27.60 27.48 27.55 27.58
4/10/2016 08:00 to 7:10 27.58 27.60 27.69 27.71 27.69 27.69
4/10/2016 07:00 to 6:10 27.76 27.70 27.66 27.79 27.86 27.75
4/10/2016 06:00 to 5:10 27.71 27.61 27.54 27.03 27.61 27.96
4/10/2016 05:00 to 4:10 27.92 27.72 27.73 27.82 27.91 27.87
4/10/2016 04:00 to 3:10 27.89 27.89 27.90 27.95 27.93 28.03
4/10/2016 03:00 to 2:10 27.99 28.06 28.06 28.06 28.00 28.04
4/10/2016 02:00 to 1:10 28.03 28.14 28.07 28.12 28.07 28.02
4/10/2016 01:00 to 0:10 28.01 28.13 28.14 28.19 28.21 28.15
4/10/2016 00:00 to 23:10 28.43 28.47 28.32 28.41 28.36 28.45
4/9/2016 23:00 to 22:10 28.39 28.31 28.35 28.27 28.19 28.32
4/9/2016 22:00 to 21:10 28.32 28.50 28.42 28.55 28.48 28.57
4/9/2016 21:00 to 20:10 28.51 28.63 28.41 28.43 28.37 28.33
4/9/2016 20:00 to 19:10 28.49 28.43 28.36 28.41 28.33 28.37
4/9/2016 19:00 to 18:10 28.45 28.49 28.39 28.47 28.44 28.23
4/9/2016 18:00 to 17:10 28.20 28.21 28.17 28.16 28.27 28.26
4/9/2016 17:00 to 16:10 28.15 28.07 28.01 27.89 27.75 27.56
4/9/2016 16:00 to 15:10 27.50 27.46 27.44 27.50 27.46 27.37
4/9/2016 15:00 to 14:10 27.32 27.43 27.24 26.73 26.50 26.64
4/9/2016 14:00 to 13:10 26.74 27.11 27.10 27.14 27.13 27.09
4/9/2016 13:00 to 12:10 27.10 27.05 27.02 27.05 27.00 27.00
4/9/2016 12:00 to 11:10 27.08 27.21 27.24 27.24 27.32 27.33
4/9/2016 11:00 to 10:10 27.19 27.17 27.17 27.09 27.14 27.22
4/9/2016 10:00 to 9:10 26.96 27.03 27.06 27.01 27.35 27.22
4/9/2016 09:00 to 8:10 27.07 26.97 27.02 27.07 27.11 27.18
4/9/2016 08:00 to 7:10 27.42 27.35 27.00 27.14 27.37 28.20
4/9/2016 07:00 to 6:10 28.03 28.08 28.12 28.20 28.19 28.21
4/9/2016 06:00 to 5:10 28.12 28.08 28.03 28.04 28.00 27.93
4/9/2016 05:00 to 4:10 27.84 28.00 27.88 27.92 27.89 27.91
4/9/2016 04:00 to 3:10 27.62 27.46 27.36 27.24 27.26 27.84
4/9/2016 03:00 to 2:10 27.69 28.21 28.17 28.20 28.24 28.23
4/9/2016 02:00 to 1:10 28.25 28.24 28.28 28.25 28.23 28.26
4/9/2016 01:00 to 0:10 28.37 28.28 28.34 28.27 28.40 28.35